owner,sensor,date,latitude,longitude,vertical_datum,wind_speed,wind_to_direction,wind_speed_of_gust,qcFlag 
TCOON,ioos:station:TCOON:068:1,2015-03-01T00:00:00Z,27.2970,-97.4049,0.0,5.2,321.0,5.8,'11111222,11111222,11111222' 
TCOON,ioos:station:TCOON:068:1,2015-03-01T00:06:00Z,27.2970,-97.4049,0.0,4.3,326.0,5.3,'11111222,11111222,11111222' 
TCOON,ioos:station:TCOON:068:1,2015-03-01T00:12:00Z,27.2970,-97.4049,0.0,4.3,326.0,5.3,'1111122,1111122,1111122' 
TCOON,ioos:station:TCOON:068:1,2015-03-01T00:18:00Z,27.2970,-97.4049,0.0,4.2,315.0,4.8,'11111222,11111222,11111222' 
TCOON,ioos:station:TCOON:068:1,2015-03-01T00:24:00Z,27.2970,-97.4049,0.0,4.3,317.0,5.1,'11111222,11111222,11111222' 
TCOON,ioos:station:TCOON:068:1,2015-03-01T00:30:00Z,27.2970,-97.4049,0.0,3.7,317.0,4.8,'11111222,11111222,11111222' 
TCOON,ioos:station:TCOON:068:1,2015-03-01T00:36:00Z,27.2970,-97.4049,0.0,3.7,316.0,4.6,'11111222,11111222,11111222' 
TCOON,ioos:station:TCOON:068:1,2015-03-01T00:42:00Z,27.2970,-97.4049,0.0,3.5,312.0,4.2,'11111222,11111222,11111222' 
TCOON,ioos:station:TCOON:068:1,2015-03-01T00:48:00Z,27.2970,-97.4049,0.0,3.6,306.0,4.1,'11111222,11111222,11111222' 
TCOON,ioos:station:TCOON:068:1,2015-03-01T00:54:00Z,27.2970,-97.4049,0.0,4.3,313.0,4.7,'11111222,11111222,11111222' 
TCOON,ioos:station:TCOON:068:1,2015-03-01T01:00:00Z,27.2970,-97.4049,0.0,3.9,313.0,4.8,'11111222,11111222,11111222' 
TCOON,ioos:station:TCOON:068:1,2015-03-01T01:06:00Z,27.2970,-97.4049,0.0,3.3,308.0,4.0,'11111222,11111222,11111222' 
TCOON,ioos:station:TCOON:068:1,2015-03-01T01:12:00Z,27.2970,-97.4049,0.0,3.3,308.0,4.0,'1111122,1111122,1111122' 
TCOON,ioos:station:TCOON:068:1,2015-03-01T01:18:00Z,27.2970,-97.4049,0.0,3.6,308.0,4.7,'11111222,11111222,11111222' 
TCOON,ioos:station:TCOON:068:1,2015-03-01T01:24:00Z,27.2970,-97.4049,0.0,2.3,291.0,3.4,'11111222,11111222,11111222' 
TCOON,ioos:station:TCOON:068:1,2015-03-01T01:30:00Z,27.2970,-97.4049,0.0,3.8,309.0,4.2,'11111222,11111222,11111222' 
TCOON,ioos:station:TCOON:068:1,2015-03-01T01:36:00Z,27.2970,-97.4049,0.0,4.1,313.0,4.6,'11111222,11111222,11111222' 
TCOON,ioos:station:TCOON:068:1,2015-03-01T01:42:00Z,27.2970,-97.4049,0.0,3.6,319.0,4.3,'11111222,11111222,11111222' 
TCOON,ioos:station:TCOON:068:1,2015-03-01T01:48:00Z,27.2970,-97.4049,0.0,3.4,318.0,4.7,'11111222,11111222,11111222' 
TCOON,ioos:station:TCOON:068:1,2015-03-01T01:54:00Z,27.2970,-97.4049,0.0,3.8,319.0,4.5,'11111222,11111222,11111222' 
TCOON,ioos:station:TCOON:068:1,2015-03-01T02:00:00Z,27.2970,-97.4049,0.0,4.0,316.0,4.8,'11111222,11111222,11111222' 
TCOON,ioos:station:TCOON:068:1,2015-03-01T02:06:00Z,27.2970,-97.4049,0.0,4.5,323.0,5.2,'11111222,11111222,11111222' 
TCOON,ioos:station:TCOON:068:1,2015-03-01T02:12:00Z,27.2970,-97.4049,0.0,4.5,323.0,5.2,'1111122,1111122,1111122' 
TCOON,ioos:station:TCOON:068:1,2015-03-01T02:18:00Z,27.2970,-97.4049,0.0,5.0,316.0,5.7,'11111222,11111222,11111222' 
TCOON,ioos:station:TCOON:068:1,2015-03-01T02:24:00Z,27.2970,-97.4049,0.0,4.9,321.0,6.0,'11111222,11111222,11111222' 
TCOON,ioos:station:TCOON:068:1,2015-03-01T02:30:00Z,27.2970,-97.4049,0.0,4.7,313.0,5.6,'11111222,11111222,11111222' 
TCOON,ioos:station:TCOON:068:1,2015-03-01T02:36:00Z,27.2970,-97.4049,0.0,4.4,312.0,4.8,'11111222,11111222,11111222' 
TCOON,ioos:station:TCOON:068:1,2015-03-01T02:42:00Z,27.2970,-97.4049,0.0,4.2,312.0,4.8,'11111222,11111222,11111222' 
TCOON,ioos:station:TCOON:068:1,2015-03-01T02:48:00Z,27.2970,-97.4049,0.0,4.6,314.0,5.3,'11111222,11111222,11111222' 
TCOON,ioos:station:TCOON:068:1,2015-03-01T02:54:00Z,27.2970,-97.4049,0.0,4.4,315.0,5.2,'11111222,11111222,11111222' 
TCOON,ioos:station:TCOON:068:1,2015-03-01T03:00:00Z,27.2970,-97.4049,0.0,4.5,321.0,5.2,'11111222,11111222,11111222' 
TCOON,ioos:station:TCOON:068:1,2015-03-01T03:06:00Z,27.2970,-97.4049,0.0,4.4,314.0,5.2,'11111222,11111222,11111222' 
TCOON,ioos:station:TCOON:068:1,2015-03-01T03:12:00Z,27.2970,-97.4049,0.0,4.4,312.0,5.0,'11111222,11111222,11111222' 
TCOON,ioos:station:TCOON:068:1,2015-03-01T03:18:00Z,27.2970,-97.4049,0.0,4.4,312.0,5.0,'1111122,1111122,1111122' 
TCOON,ioos:station:TCOON:068:1,2015-03-01T03:24:00Z,27.2970,-97.4049,0.0,4.6,321.0,5.1,'11111222,11111222,11111222' 
TCOON,ioos:station:TCOON:068:1,2015-03-01T03:30:00Z,27.2970,-97.4049,0.0,4.5,325.0,5.8,'11111222,11111222,11111222' 
TCOON,ioos:station:TCOON:068:1,2015-03-01T03:36:00Z,27.2970,-97.4049,0.0,5.3,332.0,5.8,'11111222,11111222,11111222' 
TCOON,ioos:station:TCOON:068:1,2015-03-01T03:42:00Z,27.2970,-97.4049,0.0,4.3,327.0,5.2,'11111222,11111222,11111222' 
TCOON,ioos:station:TCOON:068:1,2015-03-01T04:06:00Z,27.2970,-97.4049,0.0,4.8,323.0,7.2,'11111222,11111222,11111222' 
TCOON,ioos:station:TCOON:068:1,2015-03-01T04:12:00Z,27.2970,-97.4049,0.0,4.8,323.0,7.2,'1111122,1111122,1111122' 
TCOON,ioos:station:TCOON:068:1,2015-03-01T04:18:00Z,27.2970,-97.4049,0.0,5.7,320.0,6.1,'11111222,11111222,11111222' 
TCOON,ioos:station:TCOON:068:1,2015-03-01T04:24:00Z,27.2970,-97.4049,0.0,6.7,328.0,7.2,'11111222,11111222,11111222' 
TCOON,ioos:station:TCOON:068:1,2015-03-01T04:30:00Z,27.2970,-97.4049,0.0,5.5,327.0,6.7,'11111222,11111222,11111222' 
TCOON,ioos:station:TCOON:068:1,2015-03-01T04:36:00Z,27.2970,-97.4049,0.0,4.9,318.0,6.0,'11111222,11111222,11111222' 
TCOON,ioos:station:TCOON:068:1,2015-03-01T04:42:00Z,27.2970,-97.4049,0.0,5.3,316.0,6.0,'11111222,11111222,11111222' 
TCOON,ioos:station:TCOON:068:1,2015-03-01T04:48:00Z,27.2970,-97.4049,0.0,5.8,322.0,6.5,'11111222,11111222,11111222' 
TCOON,ioos:station:TCOON:068:1,2015-03-01T04:54:00Z,27.2970,-97.4049,0.0,4.3,309.0,6.1,'11111222,11111222,11111222' 
TCOON,ioos:station:TCOON:068:1,2015-03-01T05:00:00Z,27.2970,-97.4049,0.0,4.1,308.0,5.0,'11111222,11111222,11111222' 
TCOON,ioos:station:TCOON:068:1,2015-03-01T05:06:00Z,27.2970,-97.4049,0.0,3.9,312.0,4.6,'11111222,11111222,11111222' 
TCOON,ioos:station:TCOON:068:1,2015-03-01T05:12:00Z,27.2970,-97.4049,0.0,4.8,315.0,5.1,'11111222,11111222,11111222' 
TCOON,ioos:station:TCOON:068:1,2015-03-01T05:18:00Z,27.2970,-97.4049,0.0,4.8,315.0,5.1,'1111122,1111122,1111122' 
TCOON,ioos:station:TCOON:068:1,2015-03-01T05:24:00Z,27.2970,-97.4049,0.0,4.9,325.0,6.1,'11111222,11111222,11111222' 
TCOON,ioos:station:TCOON:068:1,2015-03-01T05:30:00Z,27.2970,-97.4049,0.0,4.2,315.0,5.5,'11111222,11111222,11111222' 
TCOON,ioos:station:TCOON:068:1,2015-03-01T05:36:00Z,27.2970,-97.4049,0.0,4.8,318.0,5.4,'11111222,11111222,11111222' 
TCOON,ioos:station:TCOON:068:1,2015-03-01T05:42:00Z,27.2970,-97.4049,0.0,5.4,315.0,6.3,'11111222,11111222,11111222' 
TCOON,ioos:station:TCOON:068:1,2015-03-01T05:48:00Z,27.2970,-97.4049,0.0,5.5,316.0,6.3,'11111222,11111222,11111222' 
TCOON,ioos:station:TCOON:068:1,2015-03-01T05:54:00Z,27.2970,-97.4049,0.0,4.9,314.0,5.5,'11111222,11111222,11111222' 
TCOON,ioos:station:TCOON:068:1,2015-03-01T06:12:00Z,27.2970,-97.4049,0.0,5.2,317.0,5.9,'11111222,11111222,11111222' 
TCOON,ioos:station:TCOON:068:1,2015-03-01T06:18:00Z,27.2970,-97.4049,0.0,5.2,317.0,5.9,'1111122,1111122,1111122' 
TCOON,ioos:station:TCOON:068:1,2015-03-01T06:36:00Z,27.2970,-97.4049,0.0,5.4,314.0,6.2,'11111222,11111222,11111222' 
TCOON,ioos:station:TCOON:068:1,2015-03-01T06:42:00Z,27.2970,-97.4049,0.0,5.4,312.0,6.2,'11111222,11111222,11111222' 
TCOON,ioos:station:TCOON:068:1,2015-03-01T06:48:00Z,27.2970,-97.4049,0.0,5.8,320.0,6.6,'11111222,11111222,11111222' 
TCOON,ioos:station:TCOON:068:1,2015-03-01T06:54:00Z,27.2970,-97.4049,0.0,5.8,320.0,6.7,'11111222,11111222,11111222' 
TCOON,ioos:station:TCOON:068:1,2015-03-01T07:00:00Z,27.2970,-97.4049,0.0,5.8,313.0,6.6,'11111222,11111222,11111222' 
TCOON,ioos:station:TCOON:068:1,2015-03-01T07:06:00Z,27.2970,-97.4049,0.0,5.6,309.0,6.3,'11111222,11111222,11111222' 
TCOON,ioos:station:TCOON:068:1,2015-03-01T07:12:00Z,27.2970,-97.4049,0.0,5.6,309.0,6.3,'1111122,1111122,1111122' 
TCOON,ioos:station:TCOON:068:1,2015-03-01T07:18:00Z,27.2970,-97.4049,0.0,6.5,310.0,7.3,'11111222,11111222,11111222' 
TCOON,ioos:station:TCOON:068:1,2015-03-01T07:24:00Z,27.2970,-97.4049,0.0,6.1,314.0,6.9,'11111222,11111222,11111222' 
TCOON,ioos:station:TCOON:068:1,2015-03-01T07:30:00Z,27.2970,-97.4049,0.0,5.7,310.0,6.7,'11111222,11111222,11111222' 
TCOON,ioos:station:TCOON:068:1,2015-03-01T07:36:00Z,27.2970,-97.4049,0.0,5.7,308.0,6.5,'11111222,11111222,11111222' 
TCOON,ioos:station:TCOON:068:1,2015-03-01T07:42:00Z,27.2970,-97.4049,0.0,6.4,313.0,7.4,'11111222,11111222,11111222' 
TCOON,ioos:station:TCOON:068:1,2015-03-01T07:48:00Z,27.2970,-97.4049,0.0,6.2,312.0,7.0,'11111222,11111222,11111222' 
TCOON,ioos:station:TCOON:068:1,2015-03-01T07:54:00Z,27.2970,-97.4049,0.0,6.3,316.0,7.2,'11111222,11111222,11111222' 
TCOON,ioos:station:TCOON:068:1,2015-03-01T08:00:00Z,27.2970,-97.4049,0.0,6.7,310.0,7.3,'11111222,11111222,11111222' 
TCOON,ioos:station:TCOON:068:1,2015-03-01T08:06:00Z,27.2970,-97.4049,0.0,6.5,312.0,7.3,'11111222,11111222,11111222' 
TCOON,ioos:station:TCOON:068:1,2015-03-01T08:12:00Z,27.2970,-97.4049,0.0,5.7,313.0,7.6,'11111222,11111222,11111222' 
TCOON,ioos:station:TCOON:068:1,2015-03-01T08:18:00Z,27.2970,-97.4049,0.0,5.7,313.0,7.6,'1111122,1111122,1111122' 
TCOON,ioos:station:TCOON:068:1,2015-03-01T08:36:00Z,27.2970,-97.4049,0.0,6.8,317.0,8.4,'11111222,11111222,11111222' 
TCOON,ioos:station:TCOON:068:1,2015-03-01T08:42:00Z,27.2970,-97.4049,0.0,6.7,313.0,7.7,'11111222,11111222,11111222' 
TCOON,ioos:station:TCOON:068:1,2015-03-01T08:48:00Z,27.2970,-97.4049,0.0,6.0,307.0,7.5,'11111222,11111222,11111222' 
TCOON,ioos:station:TCOON:068:1,2015-03-01T08:54:00Z,27.2970,-97.4049,0.0,6.8,311.0,7.7,'11111222,11111222,11111222' 
TCOON,ioos:station:TCOON:068:1,2015-03-01T09:00:00Z,27.2970,-97.4049,0.0,6.9,316.0,7.8,'11111222,11111222,11111222' 
TCOON,ioos:station:TCOON:068:1,2015-03-01T09:06:00Z,27.2970,-97.4049,0.0,6.4,316.0,7.7,'11111222,11111222,11111222' 
TCOON,ioos:station:TCOON:068:1,2015-03-01T09:12:00Z,27.2970,-97.4049,0.0,6.6,309.0,7.6,'11111222,11111222,11111222' 
TCOON,ioos:station:TCOON:068:1,2015-03-01T09:18:00Z,27.2970,-97.4049,0.0,6.6,309.0,7.6,'1111122,1111122,1111122' 
TCOON,ioos:station:TCOON:068:1,2015-03-01T09:24:00Z,27.2970,-97.4049,0.0,6.7,309.0,7.7,'11111222,11111222,11111222' 
TCOON,ioos:station:TCOON:068:1,2015-03-01T09:30:00Z,27.2970,-97.4049,0.0,6.6,309.0,7.9,'11111222,11111222,11111222' 
TCOON,ioos:station:TCOON:068:1,2015-03-01T09:36:00Z,27.2970,-97.4049,0.0,6.4,317.0,7.5,'11111222,11111222,11111222' 
TCOON,ioos:station:TCOON:068:1,2015-03-01T09:42:00Z,27.2970,-97.4049,0.0,7.0,315.0,7.9,'11111222,11111222,11111222' 
TCOON,ioos:station:TCOON:068:1,2015-03-01T09:48:00Z,27.2970,-97.4049,0.0,7.0,320.0,7.9,'11111222,11111222,11111222' 
TCOON,ioos:station:TCOON:068:1,2015-03-01T09:54:00Z,27.2970,-97.4049,0.0,6.4,311.0,7.4,'11111222,11111222,11111222' 
TCOON,ioos:station:TCOON:068:1,2015-03-01T10:00:00Z,27.2970,-97.4049,0.0,6.7,307.0,7.4,'11111222,11111222,11111222' 
TCOON,ioos:station:TCOON:068:1,2015-03-01T10:06:00Z,27.2970,-97.4049,0.0,6.4,314.0,7.2,'11111222,11111222,11111222' 
TCOON,ioos:station:TCOON:068:1,2015-03-01T10:12:00Z,27.2970,-97.4049,0.0,6.4,314.0,7.2,'1111122,1111122,1111122' 
TCOON,ioos:station:TCOON:068:1,2015-03-01T10:18:00Z,27.2970,-97.4049,0.0,6.1,319.0,7.3,'11111222,11111222,11111222' 
TCOON,ioos:station:TCOON:068:1,2015-03-01T10:24:00Z,27.2970,-97.4049,0.0,6.7,317.0,7.4,'11111222,11111222,11111222' 
TCOON,ioos:station:TCOON:068:1,2015-03-01T10:30:00Z,27.2970,-97.4049,0.0,7.1,324.0,8.0,'11111222,11111222,11111222' 
TCOON,ioos:station:TCOON:068:1,2015-03-01T10:36:00Z,27.2970,-97.4049,0.0,6.8,324.0,7.7,'11111222,11111222,11111222' 
TCOON,ioos:station:TCOON:068:1,2015-03-01T10:42:00Z,27.2970,-97.4049,0.0,6.9,327.0,7.9,'11111222,11111222,11111222' 
TCOON,ioos:station:TCOON:068:1,2015-03-01T10:48:00Z,27.2970,-97.4049,0.0,6.7,326.0,7.5,'11111222,11111222,11111222' 
TCOON,ioos:station:TCOON:068:1,2015-03-01T10:54:00Z,27.2970,-97.4049,0.0,6.1,322.0,7.8,'11111222,11111222,11111222' 
TCOON,ioos:station:TCOON:068:1,2015-03-01T11:00:00Z,27.2970,-97.4049,0.0,6.5,321.0,7.5,'11111222,11111222,11111222' 
TCOON,ioos:station:TCOON:068:1,2015-03-01T11:06:00Z,27.2970,-97.4049,0.0,6.4,321.0,7.8,'11111222,11111222,11111222' 
TCOON,ioos:station:TCOON:068:1,2015-03-01T11:12:00Z,27.2970,-97.4049,0.0,6.4,321.0,7.8,'1111122,1111122,1111122' 
TCOON,ioos:station:TCOON:068:1,2015-03-01T11:18:00Z,27.2970,-97.4049,0.0,6.6,325.0,7.2,'11111222,11111222,11111222' 
TCOON,ioos:station:TCOON:068:1,2015-03-01T11:24:00Z,27.2970,-97.4049,0.0,6.1,320.0,7.7,'11111222,11111222,11111222' 
TCOON,ioos:station:TCOON:068:1,2015-03-01T11:30:00Z,27.2970,-97.4049,0.0,6.1,317.0,7.0,'11111222,11111222,11111222' 
TCOON,ioos:station:TCOON:068:1,2015-03-01T11:36:00Z,27.2970,-97.4049,0.0,5.3,321.0,7.4,'11111222,11111222,11111222' 
TCOON,ioos:station:TCOON:068:1,2015-03-01T11:42:00Z,27.2970,-97.4049,0.0,6.5,326.0,7.0,'11111222,11111222,11111222' 
TCOON,ioos:station:TCOON:068:1,2015-03-01T11:48:00Z,27.2970,-97.4049,0.0,5.7,334.0,7.0,'11111222,11111222,11111222' 
TCOON,ioos:station:TCOON:068:1,2015-03-01T11:54:00Z,27.2970,-97.4049,0.0,4.9,337.0,6.4,'11111222,11111222,11111222' 
TCOON,ioos:station:TCOON:068:1,2015-03-01T12:00:00Z,27.2970,-97.4049,0.0,5.3,331.0,6.1,'11111222,11111222,11111222' 
TCOON,ioos:station:TCOON:068:1,2015-03-01T12:06:00Z,27.2970,-97.4049,0.0,5.5,325.0,6.4,'11111222,11111222,11111222' 
TCOON,ioos:station:TCOON:068:1,2015-03-01T12:12:00Z,27.2970,-97.4049,0.0,5.5,325.0,6.4,'1111122,1111122,1111122' 
TCOON,ioos:station:TCOON:068:1,2015-03-01T12:18:00Z,27.2970,-97.4049,0.0,6.2,316.0,6.9,'11111222,11111222,11111222' 
TCOON,ioos:station:TCOON:068:1,2015-03-01T12:24:00Z,27.2970,-97.4049,0.0,5.3,309.0,6.6,'11111222,11111222,11111222' 
TCOON,ioos:station:TCOON:068:1,2015-03-01T12:30:00Z,27.2970,-97.4049,0.0,5.1,316.0,5.8,'11111222,11111222,11111222' 
TCOON,ioos:station:TCOON:068:1,2015-03-01T12:36:00Z,27.2970,-97.4049,0.0,5.2,327.0,6.3,'11111222,11111222,11111222' 
TCOON,ioos:station:TCOON:068:1,2015-03-01T12:42:00Z,27.2970,-97.4049,0.0,5.4,335.0,6.2,'11111222,11111222,11111222' 
TCOON,ioos:station:TCOON:068:1,2015-03-01T12:48:00Z,27.2970,-97.4049,0.0,5.2,331.0,6.3,'11111222,11111222,11111222' 
TCOON,ioos:station:TCOON:068:1,2015-03-01T12:54:00Z,27.2970,-97.4049,0.0,4.1,330.0,5.3,'11111222,11111222,11111222' 
TCOON,ioos:station:TCOON:068:1,2015-03-01T13:00:00Z,27.2970,-97.4049,0.0,4.4,334.0,5.0,'11111222,11111222,11111222' 
TCOON,ioos:station:TCOON:068:1,2015-03-01T13:12:00Z,27.2970,-97.4049,0.0,3.2,307.0,5.0,'1111122,1111122,1111122' 
TCOON,ioos:station:TCOON:068:1,2015-03-01T13:18:00Z,27.2970,-97.4049,0.0,3.7,301.0,4.8,'11111222,11111222,11111222' 
TCOON,ioos:station:TCOON:068:1,2015-03-01T13:24:00Z,27.2970,-97.4049,0.0,4.1,303.0,4.7,'11111222,11111222,11111222' 
TCOON,ioos:station:TCOON:068:1,2015-03-01T13:30:00Z,27.2970,-97.4049,0.0,4.7,309.0,5.1,'11111222,11111222,11111222' 
TCOON,ioos:station:TCOON:068:1,2015-03-01T13:36:00Z,27.2970,-97.4049,0.0,5.0,325.0,5.6,'11111222,11111222,11111222' 
TCOON,ioos:station:TCOON:068:1,2015-03-01T13:42:00Z,27.2970,-97.4049,0.0,4.3,317.0,5.5,'11111222,11111222,11111222' 
TCOON,ioos:station:TCOON:068:1,2015-03-01T13:48:00Z,27.2970,-97.4049,0.0,3.8,316.0,4.7,'11111222,11111222,11111222' 
TCOON,ioos:station:TCOON:068:1,2015-03-01T13:54:00Z,27.2970,-97.4049,0.0,4.1,308.0,4.7,'11111222,11111222,11111222' 
TCOON,ioos:station:TCOON:068:1,2015-03-01T14:00:00Z,27.2970,-97.4049,0.0,4.5,296.0,5.1,'11111222,11111222,11111222' 
TCOON,ioos:station:TCOON:068:1,2015-03-01T14:06:00Z,27.2970,-97.4049,0.0,4.2,310.0,4.8,'11111222,11111222,11111222' 
TCOON,ioos:station:TCOON:068:1,2015-03-01T14:12:00Z,27.2970,-97.4049,0.0,4.2,310.0,4.8,'1111122,1111122,1111122' 
TCOON,ioos:station:TCOON:068:1,2015-03-01T14:18:00Z,27.2970,-97.4049,0.0,4.2,313.0,5.0,'11111222,11111222,11111222' 
TCOON,ioos:station:TCOON:068:1,2015-03-01T14:42:00Z,27.2970,-97.4049,0.0,4.9,293.0,5.4,'11111222,11111222,11111222' 
TCOON,ioos:station:TCOON:068:1,2015-03-01T14:48:00Z,27.2970,-97.4049,0.0,4.1,307.0,5.5,'11111222,11111222,11111222' 
TCOON,ioos:station:TCOON:068:1,2015-03-01T14:54:00Z,27.2970,-97.4049,0.0,4.0,307.0,4.6,'11111222,11111222,11111222' 
TCOON,ioos:station:TCOON:068:1,2015-03-01T15:00:00Z,27.2970,-97.4049,0.0,4.1,308.0,5.0,'11111222,11111222,11111222' 
TCOON,ioos:station:TCOON:068:1,2015-03-01T15:06:00Z,27.2970,-97.4049,0.0,4.7,310.0,5.1,'11111222,11111222,11111222' 
TCOON,ioos:station:TCOON:068:1,2015-03-01T15:12:00Z,27.2970,-97.4049,0.0,4.4,331.0,5.3,'11111222,11111222,11111222' 
TCOON,ioos:station:TCOON:068:1,2015-03-01T15:18:00Z,27.2970,-97.4049,0.0,4.4,331.0,5.3,'1111122,1111122,1111122' 
TCOON,ioos:station:TCOON:068:1,2015-03-01T15:24:00Z,27.2970,-97.4049,0.0,4.3,317.0,4.6,'11111222,11111222,11111222' 
TCOON,ioos:station:TCOON:068:1,2015-03-01T15:30:00Z,27.2970,-97.4049,0.0,4.3,320.0,5.2,'11111222,11111222,11111222' 
TCOON,ioos:station:TCOON:068:1,2015-03-01T15:36:00Z,27.2970,-97.4049,0.0,4.5,323.0,5.0,'11111222,11111222,11111222' 
TCOON,ioos:station:TCOON:068:1,2015-03-01T15:42:00Z,27.2970,-97.4049,0.0,4.3,308.0,5.1,'11111222,11111222,11111222' 
TCOON,ioos:station:TCOON:068:1,2015-03-01T15:48:00Z,27.2970,-97.4049,0.0,4.2,309.0,4.9,'11111222,11111222,11111222' 
TCOON,ioos:station:TCOON:068:1,2015-03-01T15:54:00Z,27.2970,-97.4049,0.0,4.2,307.0,5.0,'11111222,11111222,11111222' 
TCOON,ioos:station:TCOON:068:1,2015-03-01T16:00:00Z,27.2970,-97.4049,0.0,3.9,321.0,4.7,'11111222,11111222,11111222' 
TCOON,ioos:station:TCOON:068:1,2015-03-01T16:06:00Z,27.2970,-97.4049,0.0,4.3,311.0,4.6,'11111222,11111222,11111222' 
TCOON,ioos:station:TCOON:068:1,2015-03-01T16:12:00Z,27.2970,-97.4049,0.0,4.3,311.0,4.6,'1111122,1111122,1111122' 
TCOON,ioos:station:TCOON:068:1,2015-03-01T16:18:00Z,27.2970,-97.4049,0.0,4.5,314.0,5.1,'11111222,11111222,11111222' 
TCOON,ioos:station:TCOON:068:1,2015-03-01T16:24:00Z,27.2970,-97.4049,0.0,3.9,323.0,5.7,'11111222,11111222,11111222' 
TCOON,ioos:station:TCOON:068:1,2015-03-01T16:30:00Z,27.2970,-97.4049,0.0,4.2,322.0,4.9,'11111222,11111222,11111222' 
TCOON,ioos:station:TCOON:068:1,2015-03-01T16:36:00Z,27.2970,-97.4049,0.0,4.3,308.0,4.9,'11111222,11111222,11111222' 
TCOON,ioos:station:TCOON:068:1,2015-03-01T16:42:00Z,27.2970,-97.4049,0.0,4.4,306.0,5.1,'11111222,11111222,11111222' 
TCOON,ioos:station:TCOON:068:1,2015-03-01T16:48:00Z,27.2970,-97.4049,0.0,4.2,317.0,5.1,'11111222,11111222,11111222' 
TCOON,ioos:station:TCOON:068:1,2015-03-01T16:54:00Z,27.2970,-97.4049,0.0,3.3,325.0,4.6,'11111222,11111222,11111222' 
TCOON,ioos:station:TCOON:068:1,2015-03-01T17:00:00Z,27.2970,-97.4049,0.0,3.7,331.0,4.2,'11111222,11111222,11111222' 
TCOON,ioos:station:TCOON:068:1,2015-03-01T17:06:00Z,27.2970,-97.4049,0.0,3.8,332.0,4.5,'11111222,11111222,11111222' 
TCOON,ioos:station:TCOON:068:1,2015-03-01T17:12:00Z,27.2970,-97.4049,0.0,3.8,332.0,4.5,'1111122,1111122,1111122' 
TCOON,ioos:station:TCOON:068:1,2015-03-01T17:18:00Z,27.2970,-97.4049,0.0,3.8,331.0,4.3,'11111222,11111222,11111222' 
TCOON,ioos:station:TCOON:068:1,2015-03-01T17:24:00Z,27.2970,-97.4049,0.0,3.9,313.0,4.4,'11111222,11111222,11111222' 
TCOON,ioos:station:TCOON:068:1,2015-03-01T17:30:00Z,27.2970,-97.4049,0.0,3.5,311.0,4.5,'11111222,11111222,11111222' 
TCOON,ioos:station:TCOON:068:1,2015-03-01T17:36:00Z,27.2970,-97.4049,0.0,3.5,313.0,4.1,'11111222,11111222,11111222' 
TCOON,ioos:station:TCOON:068:1,2015-03-01T17:42:00Z,27.2970,-97.4049,0.0,4.2,309.0,4.8,'11111222,11111222,11111222' 
TCOON,ioos:station:TCOON:068:1,2015-03-01T17:48:00Z,27.2970,-97.4049,0.0,4.0,314.0,4.7,'11111222,11111222,11111222' 
TCOON,ioos:station:TCOON:068:1,2015-03-01T17:54:00Z,27.2970,-97.4049,0.0,4.2,312.0,5.1,'11111222,11111222,11111222' 
TCOON,ioos:station:TCOON:068:1,2015-03-01T18:00:00Z,27.2970,-97.4049,0.0,4.9,317.0,5.2,'11111222,11111222,11111222' 
TCOON,ioos:station:TCOON:068:1,2015-03-01T18:06:00Z,27.2970,-97.4049,0.0,4.8,335.0,5.4,'11111222,11111222,11111222' 
TCOON,ioos:station:TCOON:068:1,2015-03-01T18:12:00Z,27.2970,-97.4049,0.0,4.8,335.0,5.4,'1111122,1111122,1111122' 
TCOON,ioos:station:TCOON:068:1,2015-03-01T18:18:00Z,27.2970,-97.4049,0.0,4.3,319.0,5.0,'11111222,11111222,11111222' 
TCOON,ioos:station:TCOON:068:1,2015-03-01T18:24:00Z,27.2970,-97.4049,0.0,4.4,332.0,5.0,'11111222,11111222,11111222' 
TCOON,ioos:station:TCOON:068:1,2015-03-01T18:30:00Z,27.2970,-97.4049,0.0,3.8,335.0,4.7,'11111222,11111222,11111222' 
TCOON,ioos:station:TCOON:068:1,2015-03-01T18:36:00Z,27.2970,-97.4049,0.0,3.9,338.0,4.6,'11111222,11111222,11111222' 
TCOON,ioos:station:TCOON:068:1,2015-03-01T18:42:00Z,27.2970,-97.4049,0.0,3.6,328.0,4.5,'11111222,11111222,11111222' 
TCOON,ioos:station:TCOON:068:1,2015-03-01T18:48:00Z,27.2970,-97.4049,0.0,4.1,313.0,4.5,'11111222,11111222,11111222' 
TCOON,ioos:station:TCOON:068:1,2015-03-01T18:54:00Z,27.2970,-97.4049,0.0,3.9,314.0,4.5,'11111222,11111222,11111222' 
TCOON,ioos:station:TCOON:068:1,2015-03-01T19:00:00Z,27.2970,-97.4049,0.0,3.9,318.0,4.7,'11111222,11111222,11111222' 
TCOON,ioos:station:TCOON:068:1,2015-03-01T19:06:00Z,27.2970,-97.4049,0.0,4.5,315.0,5.1,'11111222,11111222,11111222' 
TCOON,ioos:station:TCOON:068:1,2015-03-01T19:12:00Z,27.2970,-97.4049,0.0,4.1,321.0,5.1,'11111222,11111222,11111222' 
TCOON,ioos:station:TCOON:068:1,2015-03-01T19:18:00Z,27.2970,-97.4049,0.0,4.1,321.0,5.1,'1111122,1111122,1111122' 
TCOON,ioos:station:TCOON:068:1,2015-03-01T19:24:00Z,27.2970,-97.4049,0.0,4.7,314.0,5.1,'11111222,11111222,11111222' 
TCOON,ioos:station:TCOON:068:1,2015-03-01T19:30:00Z,27.2970,-97.4049,0.0,4.2,316.0,5.0,'11111222,11111222,11111222' 
TCOON,ioos:station:TCOON:068:1,2015-03-01T19:36:00Z,27.2970,-97.4049,0.0,4.4,304.0,4.8,'11111222,11111222,11111222' 
TCOON,ioos:station:TCOON:068:1,2015-03-01T19:42:00Z,27.2970,-97.4049,0.0,3.8,308.0,4.8,'11111222,11111222,11111222' 
TCOON,ioos:station:TCOON:068:1,2015-03-01T19:48:00Z,27.2970,-97.4049,0.0,3.7,308.0,4.6,'11111222,11111222,11111222' 
TCOON,ioos:station:TCOON:068:1,2015-03-01T19:54:00Z,27.2970,-97.4049,0.0,4.2,305.0,4.9,'11111222,11111222,11111222' 
TCOON,ioos:station:TCOON:068:1,2015-03-01T20:00:00Z,27.2970,-97.4049,0.0,4.0,308.0,4.4,'11111222,11111222,11111222' 
TCOON,ioos:station:TCOON:068:1,2015-03-01T20:06:00Z,27.2970,-97.4049,0.0,3.7,310.0,4.5,'11111222,11111222,11111222' 
TCOON,ioos:station:TCOON:068:1,2015-03-01T20:12:00Z,27.2970,-97.4049,0.0,3.7,310.0,4.5,'1111122,1111122,1111122' 
TCOON,ioos:station:TCOON:068:1,2015-03-01T20:18:00Z,27.2970,-97.4049,0.0,3.3,314.0,3.8,'11111222,11111222,11111222' 
TCOON,ioos:station:TCOON:068:1,2015-03-01T20:24:00Z,27.2970,-97.4049,0.0,3.3,315.0,3.8,'11111222,11111222,11111222' 
TCOON,ioos:station:TCOON:068:1,2015-03-01T20:30:00Z,27.2970,-97.4049,0.0,3.1,315.0,4.0,'11111222,11111222,11111222' 
TCOON,ioos:station:TCOON:068:1,2015-03-01T20:36:00Z,27.2970,-97.4049,0.0,3.6,314.0,3.9,'11111222,11111222,11111222' 
TCOON,ioos:station:TCOON:068:1,2015-03-01T20:42:00Z,27.2970,-97.4049,0.0,3.0,319.0,3.8,'11111222,11111222,11111222' 
TCOON,ioos:station:TCOON:068:1,2015-03-01T20:48:00Z,27.2970,-97.4049,0.0,3.0,322.0,4.1,'11111222,11111222,11111222' 
TCOON,ioos:station:TCOON:068:1,2015-03-01T20:54:00Z,27.2970,-97.4049,0.0,3.6,325.0,4.1,'11111222,11111222,11111222' 
TCOON,ioos:station:TCOON:068:1,2015-03-01T21:00:00Z,27.2970,-97.4049,0.0,4.0,336.0,4.5,'11111222,11111222,11111222' 
TCOON,ioos:station:TCOON:068:1,2015-03-01T21:06:00Z,27.2970,-97.4049,0.0,4.7,337.0,5.0,'11111222,11111222,11111222' 
TCOON,ioos:station:TCOON:068:1,2015-03-01T21:12:00Z,27.2970,-97.4049,0.0,4.7,337.0,5.0,'1111122,1111122,1111122' 
TCOON,ioos:station:TCOON:068:1,2015-03-01T21:18:00Z,27.2970,-97.4049,0.0,5.1,335.0,6.0,'11111222,11111222,11111222' 
TCOON,ioos:station:TCOON:068:1,2015-03-01T21:24:00Z,27.2970,-97.4049,0.0,4.8,325.0,5.7,'11111222,11111222,11111222' 
TCOON,ioos:station:TCOON:068:1,2015-03-01T21:30:00Z,27.2970,-97.4049,0.0,4.2,326.0,5.5,'11111222,11111222,11111222' 
TCOON,ioos:station:TCOON:068:1,2015-03-01T21:36:00Z,27.2970,-97.4049,0.0,3.3,336.0,4.4,'11111222,11111222,11111222' 